Baltimore Martin, MD

10:18 PM EDT on July 20, 2017 (GMT -0400)
Martin State

Weather History for KMTN - October, 2012

Change the Weather History Date:

Monday, October 15, 2012

  Actual Average Record
Temperature  
Mean Temperature 62 °F -  
Max Temperature 68 °F 63 °F 78 °F (2008)
Min Temperature 53 °F 46 °F 35 °F (2006)
Degree Days  
Heating Degree Days 4    
Growing Degree Days 12 (Base 50)    
Moisture  
Dew Point 60 °F    
Average Humidity 87    
Maximum Humidity 100    
Minimum Humidity 73    
Precipitation  
Precipitation 0.00 in - - ()
Sea Level Pressure  
Sea Level Pressure 29.81 in    
Wind  
Wind Speed 7 mph (South)    
Max Wind Speed 10 mph    
Max Gust Speed 16 mph    
Visibility 9 miles    
Events Rain    
Averages and records for this station are not official NWS values.
T = Trace of Precipitation, MM = Missing Value Source: NWS Daily Summary

Daily Weather History Graph

Daily Weather History Graph

Search for Another Location

Airport or City:

Trip Planner

Search our weather history database for the weather conditions in past years. The results will help you decide how hot, cold, wet, or windy it might be!

Date:

Astronomy

Oct. 15, 2012 Rise Set
Actual Time 7:15 AM EDT 6:26 PM EDT
Civil Twilight 6:48 AM EDT 6:53 PM EDT
Nautical Twilight 6:17 AM EDT 7:24 PM EDT
Astronomical Twilight 5:46 AM EDT 7:55 PM EDT
Moon 7:23 AM EDT (10/15) 6:24 PM EDT (10/15)
Length of Visible Light 12h 04m
Length of Day
11h 10m
New Moon, 0% of the Moon is Illuminated
Oct 15
New Moon
Oct 21
First Quarter
Oct 29
Full
Nov 6
Last Quarter
Nov 13
New

Hourly Weather History & Observations

Time (EDT) Temp. Dew Point Humidity Pressure Visibility Wind Dir Wind Speed Gust Speed Precip Events Conditions
12:09 AM 64.4 °F 59.0 °F 83% 29.96 in 10.0 mi South 9.2 mph - N/A   Clear
12:30 AM 64.4 °F 59.0 °F 83% 29.95 in 10.0 mi SSE 6.9 mph - N/A   Scattered Clouds
12:51 AM 64.4 °F 59.0 °F 83% 29.94 in 10.0 mi SE 8.1 mph - N/A   Mostly Cloudy
1:12 AM 64.4 °F 59.0 °F 83% 29.93 in 10.0 mi SE 8.1 mph - N/A   Scattered Clouds
1:33 AM 62.6 °F 59.0 °F 88% 29.92 in 10.0 mi SE 6.9 mph - N/A   Scattered Clouds
1:54 AM 62.6 °F 59.0 °F 88% 29.91 in 10.0 mi SE 6.9 mph - N/A   Scattered Clouds
2:36 AM 62.6 °F 59.0 °F 88% 29.89 in 10.0 mi SE 9.2 mph - N/A   Clear
2:57 AM 64.4 °F 59.0 °F 83% 29.89 in 10.0 mi SE 8.1 mph - N/A   Clear
3:18 AM 64.4 °F 59.0 °F 83% 29.87 in 10.0 mi SE 9.2 mph - N/A   Clear
3:42 AM 64.4 °F 59.0 °F 83% 29.86 in 10.0 mi SE 6.9 mph - N/A   Clear
4:03 AM 62.6 °F 59.0 °F 88% 29.85 in 10.0 mi SE 4.6 mph - N/A   Clear
4:24 AM 62.6 °F 59.0 °F 88% 29.84 in 10.0 mi SE 4.6 mph - N/A   Clear
4:45 AM 64.4 °F 59.0 °F 83% 29.84 in 10.0 mi SSE 5.8 mph - N/A   Clear
5:06 AM 64.4 °F 59.0 °F 83% 29.83 in 10.0 mi SSE 5.8 mph - N/A   Clear
5:27 AM 64.4 °F 59.0 °F 83% 29.83 in 10.0 mi South 5.8 mph - N/A   Clear
5:33 AM 64.4 °F 59.0 °F 83% 29.83 in 10.0 mi South 5.8 mph - N/A   Clear
6:45 AM 66.2 °F 59.0 °F 78% 29.81 in 10.0 mi South 6.9 mph - N/A   Scattered Clouds
7:55 AM 66.2 °F 59.0 °F 78% 29.80 in 10.0 mi South 9.2 mph - N/A   Mostly Cloudy
8:45 AM 68.0 °F 59.0 °F 73% 29.79 in 10.0 mi South 10.4 mph - N/A   Mostly Cloudy
9:45 AM 68.0 °F 60.8 °F 78% 29.80 in 10.0 mi South 8.1 mph - N/A   Mostly Cloudy
10:45 AM 66.2 °F 62.6 °F 88% 29.80 in 4.0 mi South 5.8 mph - N/A Rain Rain
11:50 AM 66.2 °F 64.4 °F 94% 29.78 in 7.0 mi SSE 4.6 mph - N/A   Overcast
1:54 PM 64.4 °F 64.4 °F 100% 29.73 in 6.0 mi SSE 9.2 mph - N/A Rain Light Rain
2:02 PM 64.4 °F 64.4 °F 100% 29.73 in 6.0 mi SSE 6.9 mph - N/A Rain Light Rain
2:45 PM 64.4 °F 64.4 °F 100% 29.71 in 6.0 mi South 9.2 mph - N/A Rain Light Rain
3:10 PM 64.4 °F 62.6 °F 94% 29.71 in 3.0 mi SW 6.9 mph - N/A Rain Light Rain
3:21 PM 64.4 °F 62.6 °F 94% 29.71 in 7.0 mi SSW 9.2 mph - N/A   Mostly Cloudy
3:45 PM 64.4 °F 60.8 °F 88% 29.71 in 7.0 mi SSW 5.8 mph - N/A Rain Light Rain
4:45 PM 64.4 °F 62.6 °F 94% 29.69 in 10.0 mi Calm Calm - N/A   Mostly Cloudy
5:45 PM 64.4 °F 62.6 °F 94% 29.71 in 3.0 mi SW 3.5 mph - N/A Rain Light Rain
6:55 PM 62.6 °F 62.6 °F 100% 29.72 in 7.0 mi Calm Calm - N/A   Overcast
7:45 PM 62.6 °F 62.6 °F 100% 29.72 in 7.0 mi Calm Calm - N/A   Mostly Cloudy
8:45 PM 62.6 °F 60.8 °F 94% 29.74 in 10.0 mi Calm Calm - N/A   Light Drizzle
9:45 PM 59.0 °F 57.2 °F 94% 29.75 in 10.0 mi Calm Calm - N/A   Mostly Cloudy
10:27 PM 59.0 °F 53.6 °F 82% 29.76 in 10.0 mi West 8.1 mph - N/A   Clear
11:09 PM 59.0 °F 51.8 °F 77% 29.78 in 10.0 mi West 9.2 mph - N/A   Clear
11:30 PM 55.4 °F 50.0 °F 82% 29.78 in 10.0 mi West 10.4 mph 16.1 mph N/A   Clear
11:51 PM 53.6 °F 50.0 °F 88% 29.79 in 10.0 mi West 9.2 mph - N/A   Clear